TIANHUI 5C

Last updated on Sun Aug 04 2024 00:02:04 GMT+0000 (Coordinated Universal Time)

1 60211U 24126A 24216.52872653 .00001038 00000+0 12011-3 0 9997 2 60211 97.8295 222.6087 0001370 99.8043 260.3328 14.87625057 4398

Satellite not in orbit

TIANHUI 5C